Location: Briis
(48.6240°N, 2.1211°E)
Time: 10:37:09
(UTC+00:00)

ADEOS Rocket - Pass Details

Date: 25 September 2020
Orbit: 858 x 1307 km, 98.7° (Epoch: 25 October)

Event Time Altitude Azimuth Distance (km) Brightness Sun altitude
Rises 03:29:27 0° 151° (SSE) 3,927 6.2 -22.2°
Reaches altitude 10° 03:32:09 10° 148° (SSE) 2,907 5.6 -21.8°
Maximum altitude 03:38:32 61° 70° (ENE) 1,126 3.6 -20.8°
Drops below altitude 10° 03:44:20 10° 352° (N) 2,646 5.4 -19.9°
Sets 03:46:40 0° 349° (NNW) 3,549 6.1 -19.6°
